#timestamp,LO_Frequency,Hit,StdDev 
1681326015.3,286046998.2,N
1681326035.2,286046999.0,N
1681326055.0,286046998.7,N
1681326055.9,286046998.7,N
1681326075.7,286046998.2,N
1681326095.6,286047001.1,N
1681326115.4,286046998.7,N
1681326135.3,286046996.6,N
1681326155.1,286046998.0,N
1681326156.0,286046998.0,N
1681326175.8,286046995.1,N
1681326195.7,286046995.2,N
1681326215.5,286046999.1,N
1681326235.3,286047002.8,N
1681326255.2,286047001.6,N
1681326275.0,286047002.0,N
1681326275.9,286047002.0,N
1681326295.8,286047004.4,N
1681326315.6,286047003.1,N
1681326335.4,286047003.9,N
1681326355.3,286047001.7,N
1681326375.1,286047001.7,N
1681326395.8,286047002.2,N
1681326415.7,286047002.2,N
1681326435.5,286047002.3,N
1681326455.3,286047000.1,N
1681326475.2,286047002.4,N
1681326495.0,286047000.6,N
1681326495.9,286047000.6,N
1681326515.8,286046999.3,N
1681326535.6,286046999.2,N
1681326555.4,286046996.5,N
1681326575.3,286046997.0,N
1681326595.1,286046997.0,N
1681326615.8,286046996.6,N
1681326635.7,286046998.2,N
1681326655.5,286046999.3,N
1681326675.4,286046996.6,N
1681326695.2,286047000.7,N
1681326715.0,286047000.5,N
1681326715.9,286047000.5,N
1681326735.8,286047001.0,N
1681326755.6,286047000.6,N
1681326775.4,286047003.9,N
1681326795.3,286047002.1,N
1681326815.1,286046999.9,N
1681326835.9,286047001.2,N
1681326855.7,286046999.2,N
1681326875.5,286046998.4,N
1681326895.4,286047000.1,N
1681326915.2,286046998.6,N
1681326935.0,286046997.7,N
1681326935.9,286046997.7,N
1681326955.8,286046995.4,N
1681326975.6,286046996.6,N
1681326995.5,286046998.2,N
1681327015.3,286047000.9,N
1681327035.1,286047000.4,N
1681327055.9,286046999.8,N
1681327075.7,286047002.6,N
1681327095.5,286047000.0,N
1681327115.4,286047000.2,N
1681327135.2,286047000.9,N
1681327155.1,286046998.1,N
1681327156.0,286046998.1,N
1681327175.8,286046999.3,N
1681327195.6,286046998.7,N
1681327215.5,286047000.8,N
1681327235.3,286046998.4,N
1681327255.1,286046998.5,N
1681327275.9,286046998.7,N
1681327295.7,286046999.1,N
1681327315.5,286046999.4,N
1681327335.4,286046998.6,N
1681327355.2,286046996.6,N
1681327375.1,286046997.7,N
1681327376.0,286046997.7,N
1681327395.8,286046997.3,N
1681327415.6,286046997.3,N
1681327435.5,286046997.7,N
1681327455.3,286046996.7,N
1681327475.2,286046995.1,Y
1681327495.9,286046994.9,P
1681327515.7,286046994.9,N
1681327535.6,286046997.3,N
1681327555.4,286046997.7,N
1681327575.2,286046996.7,N
1681327595.1,286046996.8,N
1681327596.0,286046996.8,N
1681327615.8,286046997.3,N
1681327635.7,286046996.7,N
1681327655.5,286046997.5,N
1681327675.3,286046995.3,Y
1681327695.2,286046998.4,P
1681327715.9,286047000.8,N
1681327735.7,286046999.0,N
1681327755.6,286046996.8,N
1681327775.4,286046998.8,N
1681327795.3,286047000.7,N
1681327815.1,286046998.4,N
1681327816.0,286046998.4,N
1681327835.8,286047001.2,N
1681327855.7,286046998.1,N
1681327875.5,286046998.4,N
1681327895.3,286046998.5,N
1681327915.2,286046998.1,N
1681327935.0,286046999.6,N
1681327935.9,286046999.6,N
1681327955.8,286046998.1,N
1681327975.6,286046999.5,N
1681327995.4,286046998.4,N
1681328015.3,286046999.4,N
1681328035.1,286046998.5,N
1681328036.0,286046998.5,N
1681328055.8,286046998.7,N
1681328075.7,286046996.7,Y
1681328095.5,286046998.5,P
1681328115.4,286047001.2,P
1681328135.2,286047000.6,N
1681328155.0,286046999.7,N
1681328155.9,286046999.7,N
1681328175.8,286047002.7,N
1681328195.6,286046999.7,N
1681328215.4,286047002.8,N
1681328235.3,286047002.3,N
1681328255.1,286047002.1,N
1681328275.8,286047001.4,N
1681328295.7,286047002.4,N
1681328315.5,286047002.0,N
1681328335.4,286047000.1,N
1681328355.2,286047002.5,N
1681328375.0,286047001.5,N
1681328375.9,286047001.5,N
1681328395.8,286047001.8,N
1681328415.6,286047002.0,N
1681328435.4,286047001.4,N
1681328455.3,286047004.4,Y
1681328475.1,286047000.9,P
1681328495.9,286047000.9,P
1681328515.7,286047001.1,P
1681328535.5,286047000.9,Y
1681328555.4,286047001.2,P
1681328575.2,286047001.1,P
1681328595.0,286047001.0,P
1681328596.0,286047001.0,Y
1681328615.8,286047000.0,P
1681328635.6,286047000.6,N
1681328655.5,286047002.3,P
1681328675.3,286047001.4,N
1681328695.1,286047001.3,N
1681328715.9,286047003.5,Y
1681328735.7,286047001.6,P
1681328755.6,286047002.1,P
1681328775.4,286047001.5,P
1681328795.2,286047003.6,Y
1681328815.1,286047002.1,P
1681328816.0,286047002.1,P
1681328835.8,286047001.8,P
1681328855.7,286047001.9,Y
1681328875.5,286046998.9,P
1681328895.3,286046999.3,N
1681328915.2,286046999.0,N
1681328965.0,286046998.3,E
1681328975.9,286047000.9,N
1681328995.7,286047002.5,P
1681329015.5,286047000.9,N
1681329035.4,286046998.2,N
1681329055.2,286046998.1,N
1681329075.0,286047001.0,N
1681329075.9,286047001.0,N
1681329095.8,286047000.9,N
1681329115.6,286046999.4,N
1681329135.5,286047000.5,N
1681329155.3,286047001.0,N
1681329175.1,286047011.9,Y
1681329195.9,286047000.8,P
1681329215.7,286047000.6,N
1681329235.5,286046998.7,P
1681329255.4,286047000.7,N
1681329275.2,286046999.7,N
1681329295.1,286047000.4,N
1681329296.0,286047000.4,N
1681329315.8,286047001.0,N
1681329335.6,286047000.5,N
1681329355.5,286047000.5,N
1681329375.3,286047001.1,N
1681329395.1,286047000.6,N
1681329415.9,286047002.5,Y
1681329435.7,286047001.8,P
1681329455.6,286047002.8,P
1681329475.4,286047001.8,N
1681329495.2,286047001.3,N
1681329515.1,286047005.9,Y
1681329516.0,286047005.9,P
1681329535.8,286047001.5,N
1681329555.6,286047001.7,N
1681329575.5,286047001.5,N
1681329595.3,286047001.8,N
